Sparta, IL

7:25 PM CDT on April 25, 2017 (GMT -0500)
Sparta Community-Hunter

Weather History for KSAR - January, 2014

Change the Weather History Date:

Tuesday, January 7, 2014

  Actual Average (KBLV) Record (KBLV)
Temperature  
Mean Temperature 8 °F -  
Max Temperature 21 °F 38 °F 70 °F (2008)
Min Temperature -5 °F 20 °F -15 °F (2014)
Degree Days  
Heating Degree Days 57    
Moisture  
Dew Point -1 °F    
Average Humidity 63    
Maximum Humidity 71    
Minimum Humidity 53    
Precipitation  
Precipitation 0.00 in - - ()
Sea Level Pressure  
Sea Level Pressure 30.37 in    
Wind  
Wind Speed 7 mph (South)    
Max Wind Speed 17 mph    
Max Gust Speed 26 mph    
Visibility 10 miles    
Events      
Averages and records for this station are not official NWS values.
T = Trace of Precipitation, MM = Missing Value Source: NWS Daily Summary

Daily Weather History Graph

Daily Weather History Graph

Search for Another Location

Airport or City:

Trip Planner

Search our weather history database for the weather conditions in past years. The results will help you decide how hot, cold, wet, or windy it might be!

Date:

Astronomy

Jan. 07, 2014 Rise Set
Actual Time 7:15 AM CST 4:54 PM CST
Civil Twilight 6:46 AM CST 5:24 PM CST
Nautical Twilight 6:13 AM CST 5:57 PM CST
Astronomical Twilight 5:41 AM CST 6:28 PM CST
Moon 11:10 AM CST (1/7) No Moon Set
Length of Visible Light 10h 37m
Length of Day
9h 39m
Waxing Crescent, 46% of the Moon is Illuminated
Jan 7
Waxing Crescent
Jan 7
First Quarter
Jan 15
Full
Jan 23
Last Quarter
Jan 30
New

Hourly Weather History & Observations

Time (CST) Temp. Windchill Dew Point Humidity Pressure Visibility Wind Dir Wind Speed Gust Speed Precip Events Conditions
12:15 AM -5.8 °F -16.7 °F -14.8 °F 65% 30.50 in 10.0 mi SW 4.6 mph - N/A   Clear
12:35 AM -5.8 °F -14.5 °F -14.8 °F 65% 30.49 in 10.0 mi SW 3.5 mph - N/A   Clear
12:55 AM -5.8 °F -14.5 °F -13.0 °F 71% 30.48 in 10.0 mi SSW 3.5 mph - N/A   Clear
1:15 AM -5.8 °F -14.5 °F -13.0 °F 71% 30.49 in 10.0 mi SSW 3.5 mph - N/A   Clear
1:35 AM -5.8 °F - -13.0 °F 71% 30.50 in 10.0 mi Calm Calm - N/A   Clear
1:55 AM -5.8 °F -18.4 °F -13.0 °F 71% 30.50 in 10.0 mi SW 5.8 mph - N/A   Clear
2:15 AM -4.0 °F -16.3 °F -13.0 °F 65% 30.48 in 10.0 mi SW 5.8 mph - N/A   Clear
2:35 AM -4.0 °F -14.6 °F -13.0 °F 65% 30.49 in 10.0 mi SW 4.6 mph - N/A   Clear
2:55 AM -4.0 °F - -13.0 °F 65% 30.50 in 10.0 mi Calm Calm - N/A   Clear
3:15 AM -4.0 °F - -13.0 °F 65% 30.49 in 10.0 mi Calm Calm - N/A   Clear
3:35 AM -4.0 °F -12.4 °F -13.0 °F 65% 30.48 in 10.0 mi SW 3.5 mph - N/A   Clear
3:55 AM -4.0 °F -12.4 °F -13.0 °F 65% 30.47 in 10.0 mi SSW 3.5 mph - N/A   Clear
4:15 AM -4.0 °F -17.8 °F -13.0 °F 65% 30.49 in 10.0 mi SSW 6.9 mph - N/A   Clear
4:35 AM -4.0 °F -20.2 °F -13.0 °F 65% 30.49 in 10.0 mi SSW 9.2 mph - N/A   Clear
4:55 AM -4.0 °F -14.6 °F -13.0 °F 65% 30.48 in 10.0 mi SSW 4.6 mph - N/A   Clear
5:15 AM -5.8 °F -16.7 °F -13.0 °F 71% 30.47 in 10.0 mi SSW 4.6 mph - N/A   Clear
5:35 AM -5.8 °F -16.7 °F -13.0 °F 71% 30.46 in 10.0 mi SSW 4.6 mph - N/A   Clear
5:55 AM -4.0 °F -14.6 °F -13.0 °F 65% 30.45 in 10.0 mi SSW 4.6 mph - N/A   Clear
6:15 AM -4.0 °F -12.4 °F -13.0 °F 65% 30.45 in 10.0 mi South 3.5 mph - N/A   Clear
6:35 AM -4.0 °F - -13.0 °F 65% 30.45 in 10.0 mi Calm Calm - N/A   Clear
6:55 AM -4.0 °F - -11.2 °F 71% 30.46 in 10.0 mi Calm Calm - N/A   Clear
7:15 AM -4.0 °F -16.3 °F -11.2 °F 71% 30.46 in 10.0 mi South 5.8 mph - N/A   Clear
7:35 AM -4.0 °F -14.6 °F -11.2 °F 71% 30.46 in 10.0 mi South 4.6 mph - N/A   Clear
7:55 AM -2.2 °F -12.5 °F -9.4 °F 71% 30.46 in 10.0 mi South 4.6 mph - N/A   Clear
8:15 AM -0.4 °F -15.7 °F -9.4 °F 66% 30.47 in 10.0 mi South 9.2 mph - N/A   Clear
8:35 AM -0.4 °F -15.7 °F -9.4 °F 66% 30.47 in 10.0 mi South 9.2 mph - N/A   Clear
8:55 AM 1.4 °F -15.3 °F -7.6 °F 66% 30.48 in 10.0 mi South 11.5 mph 16.1 mph N/A   Clear
9:15 AM 1.4 °F -15.3 °F -7.6 °F 66% 30.47 in 10.0 mi South 11.5 mph - N/A   Clear
9:35 AM 3.2 °F -9.1 °F -7.6 °F 61% 30.48 in 10.0 mi SSW 6.9 mph - N/A   Scattered Clouds
9:55 AM 3.2 °F -11.3 °F -5.8 °F 66% 30.47 in 10.0 mi South 9.2 mph - N/A   Scattered Clouds
10:15 AM 5.0 °F -9.1 °F -5.8 °F 61% 30.47 in 10.0 mi South 9.2 mph - N/A   Mostly Cloudy
10:35 AM 6.8 °F -6.9 °F -4.0 °F 61% 30.45 in 10.0 mi South 9.2 mph - N/A   Overcast
10:55 AM 8.6 °F -5.5 °F -4.0 °F 57% 30.44 in 10.0 mi South 10.4 mph - N/A   Overcast
11:15 AM 10.4 °F -4.1 °F -2.2 °F 57% 30.43 in 10.0 mi South 11.5 mph - N/A   Overcast
11:35 AM 10.4 °F -4.8 °F -2.2 °F 57% 30.41 in 10.0 mi South 12.7 mph 20.7 mph N/A   Scattered Clouds
11:55 AM 12.2 °F -2.5 °F -0.4 °F 57% 30.39 in 10.0 mi South 12.7 mph 19.6 mph N/A   Mostly Cloudy
12:15 PM 12.2 °F -3.1 °F -0.4 °F 57% 30.36 in 10.0 mi South 13.8 mph 21.9 mph N/A   Overcast
12:35 PM 14.0 °F -1.4 °F -0.4 °F 53% 30.33 in 10.0 mi South 15.0 mph 21.9 mph N/A   Overcast
12:55 PM 15.8 °F 0.3 °F 1.4 °F 53% 30.32 in 10.0 mi South 16.1 mph - N/A   Overcast
1:15 PM 15.8 °F 0.9 °F 3.2 °F 58% 30.32 in 10.0 mi South 15.0 mph 23.0 mph N/A   Overcast
1:35 PM 17.6 °F 3.7 °F 3.2 °F 53% 30.31 in 10.0 mi South 13.8 mph 24.2 mph N/A   Overcast
1:55 PM 17.6 °F 2.2 °F 3.2 °F 53% 30.29 in 10.0 mi South 17.3 mph 20.7 mph N/A   Overcast
2:15 PM 17.6 °F 3.2 °F 5.0 °F 58% 30.28 in 10.0 mi South 15.0 mph 18.4 mph N/A   Scattered Clouds
2:35 PM 19.4 °F 6.6 °F 5.0 °F 54% 30.27 in 10.0 mi South 12.7 mph 20.7 mph N/A   Clear
2:55 PM 19.4 °F 6.6 °F 5.0 °F 54% 30.27 in 10.0 mi South 12.7 mph 24.2 mph N/A   Clear
3:15 PM 19.4 °F 6.0 °F 6.8 °F 58% 30.27 in 10.0 mi South 13.8 mph 23.0 mph N/A   Clear
3:35 PM 21.2 °F 7.8 °F 6.8 °F 54% 30.26 in 10.0 mi South 15.0 mph 21.9 mph N/A   Clear
3:55 PM 21.2 °F 7.8 °F 8.6 °F 58% 30.25 in 10.0 mi South 15.0 mph 26.5 mph N/A   Clear
4:15 PM 21.2 °F 8.3 °F 8.6 °F 58% 30.24 in 10.0 mi South 13.8 mph 21.9 mph N/A   Clear
4:35 PM 21.2 °F 7.3 °F 8.6 °F 58% 30.23 in 10.0 mi South 16.1 mph 23.0 mph N/A   Clear
4:55 PM 21.2 °F 8.9 °F 8.6 °F 58% 30.23 in 10.0 mi South 12.7 mph 24.2 mph N/A   Clear
5:15 PM 21.2 °F 10.1 °F 8.6 °F 58% 30.24 in 10.0 mi South 10.4 mph 18.4 mph N/A   Clear
5:35 PM 21.2 °F 9.5 °F 8.6 °F 58% 30.25 in 10.0 mi South 11.5 mph 17.3 mph N/A   Clear
5:55 PM 21.2 °F 11.7 °F 10.4 °F 63% 30.26 in 10.0 mi South 8.1 mph - N/A   Clear
6:15 PM 21.2 °F 10.9 °F 10.4 °F 63% 30.27 in 10.0 mi South 9.2 mph - N/A   Clear
6:35 PM 21.2 °F 11.7 °F 10.4 °F 63% 30.27 in 10.0 mi South 8.1 mph - N/A   Clear
6:55 PM 21.2 °F 12.6 °F 10.4 °F 63% 30.27 in 10.0 mi South 6.9 mph - N/A   Clear
7:15 PM 19.4 °F 11.5 °F 10.4 °F 68% 30.28 in 10.0 mi South 5.8 mph - N/A   Clear
7:35 PM 19.4 °F 10.4 °F 10.4 °F 68% 30.28 in 10.0 mi South 6.9 mph - N/A   Clear
7:55 PM 21.2 °F 11.7 °F 10.4 °F 63% 30.28 in 10.0 mi South 8.1 mph - N/A   Clear
8:15 PM 21.2 °F 11.7 °F 10.4 °F 63% 30.28 in 10.0 mi South 8.1 mph - N/A   Clear
8:35 PM 21.2 °F 10.9 °F 10.4 °F 63% 30.28 in 10.0 mi South 9.2 mph - N/A   Clear
8:55 PM 21.2 °F 11.7 °F 10.4 °F 63% 30.28 in 10.0 mi South 8.1 mph - N/A   Clear
9:15 PM 21.2 °F 10.1 °F 12.2 °F 68% 30.27 in 10.0 mi South 10.4 mph - N/A   Clear
9:35 PM 21.2 °F 9.5 °F 12.2 °F 68% 30.27 in 10.0 mi South 11.5 mph 16.1 mph N/A   Clear
9:55 PM 21.2 °F 10.9 °F 12.2 °F 68% 30.27 in 10.0 mi South 9.2 mph - N/A   Clear
10:15 PM 21.2 °F 7.8 °F 12.2 °F 68% 30.27 in 10.0 mi South 15.0 mph 19.6 mph N/A   Clear
10:35 PM 21.2 °F 10.1 °F 12.2 °F 68% 30.27 in 10.0 mi South 10.4 mph - N/A   Clear
10:55 PM 21.2 °F 10.9 °F 12.2 °F 68% 30.27 in 10.0 mi South 9.2 mph 18.4 mph N/A   Clear
11:15 PM 21.2 °F 8.9 °F 12.2 °F 68% 30.27 in 10.0 mi South 12.7 mph 17.3 mph N/A   Clear
11:35 PM 21.2 °F 9.5 °F 12.2 °F 68% 30.28 in 10.0 mi SSW 11.5 mph 18.4 mph N/A   Clear
11:55 PM 21.2 °F 8.9 °F 12.2 °F 68% 30.28 in 10.0 mi South 12.7 mph 17.3 mph N/A   Clear